Flag for USA

Past Weather in Lowell, Massachusetts, USA — Yesterday and Last 2 Weeks

Now
71 °F

Mostly cloudy.


Feels Like: 67 °F
Forecast: 80 / 67 °F
Wind: 6 mph from South

Location: Hanscom Field
Current Time: Sep 28, 2020 at 6:21:11 am
Latest Report: Sep 28, 2020 at 5:51 am
Visibility: 10 mi
Pressure29.96 "Hg
Humidity: 93%
Dew Point: 69 °F
Location of LowellLocation

Past Weather in Lowell — Graph

°F

Lowell Temperature Yesterday

Maximum temperature yesterday: 80 °F (at 2:51 pm)
Minimum temperature yesterday: 64 °F (at 12:41 am)
Average temperature yesterday: 71 °F

High & Low Weather Summary for the Past Weeks

 TemperatureHumidityPressure
High80 °F (Sep 25, 2:51 pm)97% (Sep 24, 6:51 am)30.64 "Hg (Sep 24, 6:51 am)
Low32 °F (Sep 21, 4:51 am)25% (Sep 19, 4:51 pm)29.70 "Hg (Sep 23, 1:51 pm)
Average60 °F66%30.14 "Hg
* Reported Sep 13 5:19 am — Sep 28 5:01 am, Lowell. Weather by CustomWeather, © 2020

Note: Actual official high and low records may vary slightly from our data, if they occured in-between our weather recording intervals... More about our weather records

Lowell Weather History for the Previous 24 Hours

Scroll right to see more
 ConditionsComfort  
Time TempWeatherWind HumidityBarometerVisibility
5:01 am
Mon, Sep 28
71 °FPartly cloudy.7 mph93%29.93 "Hg10 mi
4:35 am70 °FPassing clouds.8 mph97%29.93 "Hg10 mi
4:21 am71 °FOvercast.7 mph93%29.93 "Hg10 mi
3:51 am71 °FLow clouds.8 mph96%29.96 "Hg10 mi
2:51 am70 °FLow clouds.7 mph97%29.98 "Hg8 mi
2:17 am70 °FLight rain. Fog.6 mph97%29.95 "Hg4 mi
1:59 am70 °FLight rain. Fog.7 mph93%29.96 "Hg2 mi
1:27 am70 °FMostly cloudy.6 mph90%29.97 "Hg10 mi
12:51 am70 °FOvercast.5 mph90%30.00 "Hg10 mi
12:05 am70 °FPassing clouds.5 mph90%29.98 "Hg10 mi
11:51 pm
Sun, Sep 27
70 °FPassing clouds.3 mph90%30.01 "Hg10 mi
10:51 pm71 °FPassing clouds.3 mph87%30.02 "Hg10 mi
9:51 pm71 °FPassing clouds.5 mph87%30.01 "Hg10 mi
8:51 pm72 °FPassing clouds.8 mph84%30.01 "Hg10 mi
7:51 pm73 °FPassing clouds.9 mph81%30.00 "Hg10 mi
6:51 pm75 °FPartly cloudy.10 mph74%29.98 "Hg10 mi
5:51 pm76 °FScattered clouds.8 mph74%29.97 "Hg10 mi
4:51 pm78 °FSunny.13 mph69%29.97 "Hg10 mi
3:51 pm79 °FScattered clouds.9 mph65%29.98 "Hg10 mi
2:51 pm80 °FMore clouds than sun.12 mph60%29.99 "Hg10 mi
1:51 pm78 °FMore clouds than sun.8 mph64%30.01 "Hg10 mi
12:51 pm77 °FBroken clouds.9 mph64%30.03 "Hg10 mi
11:58 am75 °FMore clouds than sun.6 mph71%30.02 "Hg10 mi
10:51 am72 °FOvercast.8 mph78%30.07 "Hg10 mi
9:51 am71 °FOvercast.6 mph81%30.07 "Hg10 mi
8:51 am69 °FOvercast.6 mph84%30.07 "Hg10 mi
7:51 am68 °FOvercast.6 mph87%30.05 "Hg10 mi
6:51 am67 °FOvercast.3 mph90%30.06 "Hg10 mi
6:36 am67 °FOvercast.No wind90%30.02 "Hg10 mi
Weather by CustomWeather, © 2020

See weather overview